owner,sensor,date,latitude,longitude,vertical_datum,sea_water_temperature,qcFlag 
TCOON,ioos:station:TCOON:127:1,2019-11-01T00:18:00Z,28.2598,-96.7737,0.0,16.5,11111222 
TCOON,ioos:station:TCOON:127:1,2019-11-01T01:18:00Z,28.2598,-96.7737,0.0,16.5,11111222 
TCOON,ioos:station:TCOON:127:1,2019-11-01T02:18:00Z,28.2598,-96.7737,0.0,16.2,11111222 
TCOON,ioos:station:TCOON:127:1,2019-11-01T03:18:00Z,28.2598,-96.7737,0.0,16.0,11111222 
TCOON,ioos:station:TCOON:127:1,2019-11-01T04:18:00Z,28.2598,-96.7737,0.0,15.7,11111222 
TCOON,ioos:station:TCOON:127:1,2019-11-01T05:18:00Z,28.2598,-96.7737,0.0,15.4,11111222 
TCOON,ioos:station:TCOON:127:1,2019-11-01T06:18:00Z,28.2598,-96.7737,0.0,15.2,11111222 
TCOON,ioos:station:TCOON:127:1,2019-11-01T07:18:00Z,28.2598,-96.7737,0.0,15.0,11111222 
TCOON,ioos:station:TCOON:127:1,2019-11-01T08:18:00Z,28.2598,-96.7737,0.0,14.9,11111222 
TCOON,ioos:station:TCOON:127:1,2019-11-01T09:18:00Z,28.2598,-96.7737,0.0,14.8,11111222 
TCOON,ioos:station:TCOON:127:1,2019-11-01T10:18:00Z,28.2598,-96.7737,0.0,14.7,11111222 
TCOON,ioos:station:TCOON:127:1,2019-11-01T11:18:00Z,28.2598,-96.7737,0.0,14.6,11111222 
TCOON,ioos:station:TCOON:127:1,2019-11-01T12:18:00Z,28.2598,-96.7737,0.0,14.5,11111222 
TCOON,ioos:station:TCOON:127:1,2019-11-01T13:18:00Z,28.2598,-96.7737,0.0,14.5,11111222 
TCOON,ioos:station:TCOON:127:1,2019-11-01T14:18:00Z,28.2598,-96.7737,0.0,14.4,11111222 
TCOON,ioos:station:TCOON:127:1,2019-11-01T15:18:00Z,28.2598,-96.7737,0.0,14.4,11111222 
TCOON,ioos:station:TCOON:127:1,2019-11-01T16:18:00Z,28.2598,-96.7737,0.0,14.5,11111222 
TCOON,ioos:station:TCOON:127:1,2019-11-01T17:18:00Z,28.2598,-96.7737,0.0,14.6,11111222 
TCOON,ioos:station:TCOON:127:1,2019-11-01T18:18:00Z,28.2598,-96.7737,0.0,15.2,11111222 
TCOON,ioos:station:TCOON:127:1,2019-11-01T19:18:00Z,28.2598,-96.7737,0.0,15.4,11111222 
TCOON,ioos:station:TCOON:127:1,2019-11-01T20:18:00Z,28.2598,-96.7737,0.0,15.8,11111222 
TCOON,ioos:station:TCOON:127:1,2019-11-01T21:18:00Z,28.2598,-96.7737,0.0,15.9,11111222 
TCOON,ioos:station:TCOON:127:1,2019-11-01T22:18:00Z,28.2598,-96.7737,0.0,16.1,11111222 
TCOON,ioos:station:TCOON:127:1,2019-11-01T23:18:00Z,28.2598,-96.7737,0.0,16.1,11111222 
TCOON,ioos:station:TCOON:127:1,2019-11-02T00:18:00Z,28.2598,-96.7737,0.0,15.9,11111222 
TCOON,ioos:station:TCOON:127:1,2019-11-02T01:18:00Z,28.2598,-96.7737,0.0,15.8,11111222 
TCOON,ioos:station:TCOON:127:1,2019-11-02T02:18:00Z,28.2598,-96.7737,0.0,15.7,11111222 
TCOON,ioos:station:TCOON:127:1,2019-11-02T03:18:00Z,28.2598,-96.7737,0.0,15.8,11111222 
TCOON,ioos:station:TCOON:127:1,2019-11-02T04:18:00Z,28.2598,-96.7737,0.0,15.8,11111222 
TCOON,ioos:station:TCOON:127:1,2019-11-02T05:18:00Z,28.2598,-96.7737,0.0,16.0,11111222 
TCOON,ioos:station:TCOON:127:1,2019-11-02T06:18:00Z,28.2598,-96.7737,0.0,16.0,11111222 
TCOON,ioos:station:TCOON:127:1,2019-11-02T14:18:00Z,28.2598,-96.7737,0.0,15.6,11111222 
TCOON,ioos:station:TCOON:127:1,2019-11-02T15:18:00Z,28.2598,-96.7737,0.0,15.7,11111222 
TCOON,ioos:station:TCOON:127:1,2019-11-02T16:18:00Z,28.2598,-96.7737,0.0,15.9,11111222 
TCOON,ioos:station:TCOON:127:1,2019-11-02T17:18:00Z,28.2598,-96.7737,0.0,16.1,11111222 
TCOON,ioos:station:TCOON:127:1,2019-11-02T18:18:00Z,28.2598,-96.7737,0.0,16.2,11111222 
TCOON,ioos:station:TCOON:127:1,2019-11-02T19:18:00Z,28.2598,-96.7737,0.0,16.3,11111222 
TCOON,ioos:station:TCOON:127:1,2019-11-02T20:18:00Z,28.2598,-96.7737,0.0,16.4,11111222 
TCOON,ioos:station:TCOON:127:1,2019-11-02T21:18:00Z,28.2598,-96.7737,0.0,16.6,11111222 
TCOON,ioos:station:TCOON:127:1,2019-11-02T22:18:00Z,28.2598,-96.7737,0.0,16.6,11111222 
TCOON,ioos:station:TCOON:127:1,2019-11-03T01:18:00Z,28.2598,-96.7737,0.0,16.3,11111222 
TCOON,ioos:station:TCOON:127:1,2019-11-03T02:18:00Z,28.2598,-96.7737,0.0,16.2,11111222 
TCOON,ioos:station:TCOON:127:1,2019-11-03T03:18:00Z,28.2598,-96.7737,0.0,16.0,11111222 
TCOON,ioos:station:TCOON:127:1,2019-11-03T04:18:00Z,28.2598,-96.7737,0.0,15.9,11111222 
TCOON,ioos:station:TCOON:127:1,2019-11-03T05:18:00Z,28.2598,-96.7737,0.0,15.9,11111222 
TCOON,ioos:station:TCOON:127:1,2019-11-03T06:18:00Z,28.2598,-96.7737,0.0,15.7,11111222 
TCOON,ioos:station:TCOON:127:1,2019-11-03T07:18:00Z,28.2598,-96.7737,0.0,15.8,11111222 
TCOON,ioos:station:TCOON:127:1,2019-11-03T08:18:00Z,28.2598,-96.7737,0.0,15.5,11111222 
TCOON,ioos:station:TCOON:127:1,2019-11-03T09:18:00Z,28.2598,-96.7737,0.0,15.5,11111222 
TCOON,ioos:station:TCOON:127:1,2019-11-03T10:18:00Z,28.2598,-96.7737,0.0,15.6,11111222 
TCOON,ioos:station:TCOON:127:1,2019-11-03T11:18:00Z,28.2598,-96.7737,0.0,15.7,11111222 
TCOON,ioos:station:TCOON:127:1,2019-11-03T12:18:00Z,28.2598,-96.7737,0.0,15.7,11111222 
TCOON,ioos:station:TCOON:127:1,2019-11-06T11:18:00Z,28.2598,-96.7737,0.0,19.1,11111222 
TCOON,ioos:station:TCOON:127:1,2019-11-06T12:18:00Z,28.2598,-96.7737,0.0,19.2,11111222 
TCOON,ioos:station:TCOON:127:1,2019-11-06T13:18:00Z,28.2598,-96.7737,0.0,19.2,11111222 
TCOON,ioos:station:TCOON:127:1,2019-11-06T14:18:00Z,28.2598,-96.7737,0.0,19.4,11111222 
TCOON,ioos:station:TCOON:127:1,2019-11-06T15:18:00Z,28.2598,-96.7737,0.0,19.8,11111222 
TCOON,ioos:station:TCOON:127:1,2019-11-06T16:18:00Z,28.2598,-96.7737,0.0,20.3,11111222 
TCOON,ioos:station:TCOON:127:1,2019-11-06T17:18:00Z,28.2598,-96.7737,0.0,20.7,11111222 
TCOON,ioos:station:TCOON:127:1,2019-11-06T18:18:00Z,28.2598,-96.7737,0.0,21.1,11111222 
TCOON,ioos:station:TCOON:127:1,2019-11-06T19:18:00Z,28.2598,-96.7737,0.0,21.4,11111222 
TCOON,ioos:station:TCOON:127:1,2019-11-06T20:18:00Z,28.2598,-96.7737,0.0,21.6,11111222 
TCOON,ioos:station:TCOON:127:1,2019-11-06T21:18:00Z,28.2598,-96.7737,0.0,21.7,11111222 
TCOON,ioos:station:TCOON:127:1,2019-11-06T22:18:00Z,28.2598,-96.7737,0.0,21.8,11111222 
TCOON,ioos:station:TCOON:127:1,2019-11-06T23:18:00Z,28.2598,-96.7737,0.0,21.9,11111222 
TCOON,ioos:station:TCOON:127:1,2019-11-07T00:18:00Z,28.2598,-96.7737,0.0,21.9,11111222 
TCOON,ioos:station:TCOON:127:1,2019-11-07T01:18:00Z,28.2598,-96.7737,0.0,22.0,11111222 
TCOON,ioos:station:TCOON:127:1,2019-11-07T02:18:00Z,28.2598,-96.7737,0.0,21.7,11111222 
TCOON,ioos:station:TCOON:127:1,2019-11-07T03:18:00Z,28.2598,-96.7737,0.0,21.7,11111222 
TCOON,ioos:station:TCOON:127:1,2019-11-07T04:18:00Z,28.2598,-96.7737,0.0,21.6,11111222 
TCOON,ioos:station:TCOON:127:1,2019-11-07T05:18:00Z,28.2598,-96.7737,0.0,21.4,11111222 
TCOON,ioos:station:TCOON:127:1,2019-11-07T06:18:00Z,28.2598,-96.7737,0.0,21.4,11111222 
TCOON,ioos:station:TCOON:127:1,2019-11-07T07:24:00Z,28.2598,-96.7737,0.0,21.3,11111222 
TCOON,ioos:station:TCOON:127:1,2019-11-07T08:18:00Z,28.2598,-96.7737,0.0,21.1,11111222 
TCOON,ioos:station:TCOON:127:1,2019-11-08T07:18:00Z,28.2598,-96.7737,0.0,19.7,11111222 
TCOON,ioos:station:TCOON:127:1,2019-11-08T08:18:00Z,28.2598,-96.7737,0.0,19.5,11111222 
TCOON,ioos:station:TCOON:127:1,2019-11-08T09:18:00Z,28.2598,-96.7737,0.0,19.2,11111222 
TCOON,ioos:station:TCOON:127:1,2019-11-08T10:18:00Z,28.2598,-96.7737,0.0,19.0,11111222 
TCOON,ioos:station:TCOON:127:1,2019-11-08T11:18:00Z,28.2598,-96.7737,0.0,18.8,11111222 
TCOON,ioos:station:TCOON:127:1,2019-11-08T12:18:00Z,28.2598,-96.7737,0.0,18.6,11111222 
TCOON,ioos:station:TCOON:127:1,2019-11-08T13:18:00Z,28.2598,-96.7737,0.0,18.4,11111222 
TCOON,ioos:station:TCOON:127:1,2019-11-08T14:18:00Z,28.2598,-96.7737,0.0,18.2,11111222 
TCOON,ioos:station:TCOON:127:1,2019-11-08T15:18:00Z,28.2598,-96.7737,0.0,18.1,11111222 
TCOON,ioos:station:TCOON:127:1,2019-11-08T16:18:00Z,28.2598,-96.7737,0.0,17.9,11111222 
TCOON,ioos:station:TCOON:127:1,2019-11-08T17:18:00Z,28.2598,-96.7737,0.0,17.8,11111222 
TCOON,ioos:station:TCOON:127:1,2019-11-08T18:18:00Z,28.2598,-96.7737,0.0,17.6,11111222 
TCOON,ioos:station:TCOON:127:1,2019-11-08T19:18:00Z,28.2598,-96.7737,0.0,17.4,11111222 
TCOON,ioos:station:TCOON:127:1,2019-11-08T20:18:00Z,28.2598,-96.7737,0.0,17.4,11111222 
TCOON,ioos:station:TCOON:127:1,2019-11-08T21:18:00Z,28.2598,-96.7737,0.0,17.3,11111222 
TCOON,ioos:station:TCOON:127:1,2019-11-08T22:18:00Z,28.2598,-96.7737,0.0,17.2,11111222 
TCOON,ioos:station:TCOON:127:1,2019-11-08T23:18:00Z,28.2598,-96.7737,0.0,17.1,11111222 
TCOON,ioos:station:TCOON:127:1,2019-11-09T00:18:00Z,28.2598,-96.7737,0.0,17.0,11111222 
TCOON,ioos:station:TCOON:127:1,2019-11-09T01:18:00Z,28.2598,-96.7737,0.0,16.9,11111222 
TCOON,ioos:station:TCOON:127:1,2019-11-09T02:18:00Z,28.2598,-96.7737,0.0,16.8,11111222 
TCOON,ioos:station:TCOON:127:1,2019-11-09T03:18:00Z,28.2598,-96.7737,0.0,16.7,11111222 
TCOON,ioos:station:TCOON:127:1,2019-11-09T04:18:00Z,28.2598,-96.7737,0.0,16.6,11111222 
TCOON,ioos:station:TCOON:127:1,2019-11-09T05:18:00Z,28.2598,-96.7737,0.0,16.4,11111222 
TCOON,ioos:station:TCOON:127:1,2019-11-09T06:18:00Z,28.2598,-96.7737,0.0,16.3,11111222 
TCOON,ioos:station:TCOON:127:1,2019-11-09T07:18:00Z,28.2598,-96.7737,0.0,16.2,11111222 
TCOON,ioos:station:TCOON:127:1,2019-11-09T08:18:00Z,28.2598,-96.7737,0.0,16.2,11111222 
TCOON,ioos:station:TCOON:127:1,2019-11-09T09:18:00Z,28.2598,-96.7737,0.0,16.0,11111222 
TCOON,ioos:station:TCOON:127:1,2019-11-09T10:18:00Z,28.2598,-96.7737,0.0,15.9,11111222 
TCOON,ioos:station:TCOON:127:1,2019-11-09T11:18:00Z,28.2598,-96.7737,0.0,15.8,11111222 
TCOON,ioos:station:TCOON:127:1,2019-11-09T12:18:00Z,28.2598,-96.7737,0.0,15.7,11111222 
TCOON,ioos:station:TCOON:127:1,2019-11-09T13:18:00Z,28.2598,-96.7737,0.0,15.6,11111222 
TCOON,ioos:station:TCOON:127:1,2019-11-09T14:18:00Z,28.2598,-96.7737,0.0,15.5,11111222 
TCOON,ioos:station:TCOON:127:1,2019-11-09T15:18:00Z,28.2598,-96.7737,0.0,15.6,11111222 
TCOON,ioos:station:TCOON:127:1,2019-11-09T16:18:00Z,28.2598,-96.7737,0.0,15.7,11111222 
TCOON,ioos:station:TCOON:127:1,2019-11-09T17:18:00Z,28.2598,-96.7737,0.0,15.8,11111222 
TCOON,ioos:station:TCOON:127:1,2019-11-09T18:18:00Z,28.2598,-96.7737,0.0,16.2,11111222 
TCOON,ioos:station:TCOON:127:1,2019-11-09T20:18:00Z,28.2598,-96.7737,0.0,16.8,11111222 
TCOON,ioos:station:TCOON:127:1,2019-11-09T21:18:00Z,28.2598,-96.7737,0.0,16.5,11111222 
TCOON,ioos:station:TCOON:127:1,2019-11-09T22:18:00Z,28.2598,-96.7737,0.0,16.5,11111222 
TCOON,ioos:station:TCOON:127:1,2019-11-09T23:18:00Z,28.2598,-96.7737,0.0,16.6,11111222 
TCOON,ioos:station:TCOON:127:1,2019-11-10T00:18:00Z,28.2598,-96.7737,0.0,16.6,11111222 
TCOON,ioos:station:TCOON:127:1,2019-11-10T01:18:00Z,28.2598,-96.7737,0.0,16.5,11111222 
TCOON,ioos:station:TCOON:127:1,2019-11-10T02:18:00Z,28.2598,-96.7737,0.0,16.5,11111222 
TCOON,ioos:station:TCOON:127:1,2019-11-10T03:18:00Z,28.2598,-96.7737,0.0,16.4,11111222 
TCOON,ioos:station:TCOON:127:1,2019-11-12T02:18:00Z,28.2598,-96.7737,0.0,17.6,11111222 
TCOON,ioos:station:TCOON:127:1,2019-11-12T03:18:00Z,28.2598,-96.7737,0.0,17.2,11111222 
TCOON,ioos:station:TCOON:127:1,2019-11-12T04:18:00Z,28.2598,-96.7737,0.0,16.9,11111222 
TCOON,ioos:station:TCOON:127:1,2019-11-12T05:18:00Z,28.2598,-96.7737,0.0,16.6,11111222 
TCOON,ioos:station:TCOON:127:1,2019-11-12T06:18:00Z,28.2598,-96.7737,0.0,16.3,11111222 
TCOON,ioos:station:TCOON:127:1,2019-11-12T07:18:00Z,28.2598,-96.7737,0.0,15.8,11111222 
TCOON,ioos:station:TCOON:127:1,2019-11-12T08:18:00Z,28.2598,-96.7737,0.0,15.6,11111222 
TCOON,ioos:station:TCOON:127:1,2019-11-12T09:18:00Z,28.2598,-96.7737,0.0,15.3,11111222 
TCOON,ioos:station:TCOON:127:1,2019-11-12T10:18:00Z,28.2598,-96.7737,0.0,15.0,11111222 
TCOON,ioos:station:TCOON:127:1,2019-11-12T11:18:00Z,28.2598,-96.7737,0.0,14.8,11111222 
TCOON,ioos:station:TCOON:127:1,2019-11-12T12:18:00Z,28.2598,-96.7737,0.0,14.4,11111222 
TCOON,ioos:station:TCOON:127:1,2019-11-12T13:18:00Z,28.2598,-96.7737,0.0,14.1,11111222 
TCOON,ioos:station:TCOON:127:1,2019-11-12T14:18:00Z,28.2598,-96.7737,0.0,13.9,11111222 
TCOON,ioos:station:TCOON:127:1,2019-11-12T15:18:00Z,28.2598,-96.7737,0.0,13.6,11111222 
TCOON,ioos:station:TCOON:127:1,2019-11-12T16:18:00Z,28.2598,-96.7737,0.0,13.4,11111222 
TCOON,ioos:station:TCOON:127:1,2019-11-12T17:18:00Z,28.2598,-96.7737,0.0,13.1,11111222 
TCOON,ioos:station:TCOON:127:1,2019-11-12T18:18:00Z,28.2598,-96.7737,0.0,13.0,11111222 
TCOON,ioos:station:TCOON:127:1,2019-11-12T19:18:00Z,28.2598,-96.7737,0.0,12.9,11111222 
TCOON,ioos:station:TCOON:127:1,2019-11-12T20:18:00Z,28.2598,-96.7737,0.0,12.7,11111222 
TCOON,ioos:station:TCOON:127:1,2019-11-12T21:18:00Z,28.2598,-96.7737,0.0,12.5,11111222 
TCOON,ioos:station:TCOON:127:1,2019-11-12T22:18:00Z,28.2598,-96.7737,0.0,12.4,11111222 
TCOON,ioos:station:TCOON:127:1,2019-11-12T23:18:00Z,28.2598,-96.7737,0.0,12.2,11111222 
TCOON,ioos:station:TCOON:127:1,2019-11-13T00:18:00Z,28.2598,-96.7737,0.0,12.1,11111222 
TCOON,ioos:station:TCOON:127:1,2019-11-13T01:18:00Z,28.2598,-96.7737,0.0,11.9,11111222 
TCOON,ioos:station:TCOON:127:1,2019-11-13T02:18:00Z,28.2598,-96.7737,0.0,11.8,11111222 
TCOON,ioos:station:TCOON:127:1,2019-11-13T03:18:00Z,28.2598,-96.7737,0.0,11.3,11111222 
TCOON,ioos:station:TCOON:127:1,2019-11-13T04:18:00Z,28.2598,-96.7737,0.0,11.2,11111222 
TCOON,ioos:station:TCOON:127:1,2019-11-13T05:18:00Z,28.2598,-96.7737,0.0,11.1,11111222 
TCOON,ioos:station:TCOON:127:1,2019-11-13T06:18:00Z,28.2598,-96.7737,0.0,11.0,11111222 
TCOON,ioos:station:TCOON:127:1,2019-11-13T07:18:00Z,28.2598,-96.7737,0.0,11.0,11111222 
TCOON,ioos:station:TCOON:127:1,2019-11-13T08:18:00Z,28.2598,-96.7737,0.0,11.1,11111222 
TCOON,ioos:station:TCOON:127:1,2019-11-13T09:18:00Z,28.2598,-96.7737,0.0,11.0,11111222 
TCOON,ioos:station:TCOON:127:1,2019-11-13T10:18:00Z,28.2598,-96.7737,0.0,10.9,11111222 
TCOON,ioos:station:TCOON:127:1,2019-11-13T11:18:00Z,28.2598,-96.7737,0.0,10.8,11111222 
TCOON,ioos:station:TCOON:127:1,2019-11-13T12:18:00Z,28.2598,-96.7737,0.0,10.7,11111222 
TCOON,ioos:station:TCOON:127:1,2019-11-13T13:18:00Z,28.2598,-96.7737,0.0,10.5,11111222 
TCOON,ioos:station:TCOON:127:1,2019-11-13T14:18:00Z,28.2598,-96.7737,0.0,10.4,11111222 
TCOON,ioos:station:TCOON:127:1,2019-11-13T15:18:00Z,28.2598,-96.7737,0.0,10.4,11111222 
TCOON,ioos:station:TCOON:127:1,2019-11-13T16:24:00Z,28.2598,-96.7737,0.0,10.5,11111222 
TCOON,ioos:station:TCOON:127:1,2019-11-13T17:18:00Z,28.2598,-96.7737,0.0,10.4,11111222 
TCOON,ioos:station:TCOON:127:1,2019-11-13T18:18:00Z,28.2598,-96.7737,0.0,10.4,11111222 
TCOON,ioos:station:TCOON:127:1,2019-11-13T19:18:00Z,28.2598,-96.7737,0.0,10.3,11111222 
TCOON,ioos:station:TCOON:127:1,2019-11-13T20:18:00Z,28.2598,-96.7737,0.0,10.1,11111222 
TCOON,ioos:station:TCOON:127:1,2019-11-13T21:18:00Z,28.2598,-96.7737,0.0,10.1,11111222 
TCOON,ioos:station:TCOON:127:1,2019-11-13T22:18:00Z,28.2598,-96.7737,0.0,10.2,11111222 
TCOON,ioos:station:TCOON:127:1,2019-11-13T23:18:00Z,28.2598,-96.7737,0.0,10.2,11111222 
TCOON,ioos:station:TCOON:127:1,2019-11-14T00:18:00Z,28.2598,-96.7737,0.0,10.2,11111222 
TCOON,ioos:station:TCOON:127:1,2019-11-14T01:18:00Z,28.2598,-96.7737,0.0,10.2,11111222 
TCOON,ioos:station:TCOON:127:1,2019-11-14T02:18:00Z,28.2598,-96.7737,0.0,10.1,11111222 
TCOON,ioos:station:TCOON:127:1,2019-11-14T03:18:00Z,28.2598,-96.7737,0.0,10.1,11111222 
TCOON,ioos:station:TCOON:127:1,2019-11-14T04:18:00Z,28.2598,-96.7737,0.0,10.1,11111222 
TCOON,ioos:station:TCOON:127:1,2019-11-14T05:18:00Z,28.2598,-96.7737,0.0,10.0,11111222 
TCOON,ioos:station:TCOON:127:1,2019-11-14T06:18:00Z,28.2598,-96.7737,0.0,10.0,11111222 
TCOON,ioos:station:TCOON:127:1,2019-11-14T07:18:00Z,28.2598,-96.7737,0.0,10.0,11111222 
TCOON,ioos:station:TCOON:127:1,2019-11-14T08:18:00Z,28.2598,-96.7737,0.0,9.9,11113222 
TCOON,ioos:station:TCOON:127:1,2019-11-14T09:18:00Z,28.2598,-96.7737,0.0,9.9,11113222 
TCOON,ioos:station:TCOON:127:1,2019-11-14T10:18:00Z,28.2598,-96.7737,0.0,9.9,11113222 
TCOON,ioos:station:TCOON:127:1,2019-11-14T11:18:00Z,28.2598,-96.7737,0.0,9.9,11113222 
TCOON,ioos:station:TCOON:127:1,2019-11-14T12:18:00Z,28.2598,-96.7737,0.0,9.9,11113222 
TCOON,ioos:station:TCOON:127:1,2019-11-14T13:18:00Z,28.2598,-96.7737,0.0,9.9,11113222 
TCOON,ioos:station:TCOON:127:1,2019-11-14T14:18:00Z,28.2598,-96.7737,0.0,9.9,11113222 
TCOON,ioos:station:TCOON:127:1,2019-11-14T15:18:00Z,28.2598,-96.7737,0.0,9.9,11113222 
TCOON,ioos:station:TCOON:127:1,2019-11-14T16:18:00Z,28.2598,-96.7737,0.0,9.9,11113222 
TCOON,ioos:station:TCOON:127:1,2019-11-14T17:18:00Z,28.2598,-96.7737,0.0,9.9,11113222 
TCOON,ioos:station:TCOON:127:1,2019-11-14T18:18:00Z,28.2598,-96.7737,0.0,9.9,11113222 
TCOON,ioos:station:TCOON:127:1,2019-11-14T19:18:00Z,28.2598,-96.7737,0.0,9.9,11113222 
TCOON,ioos:station:TCOON:127:1,2019-11-14T20:18:00Z,28.2598,-96.7737,0.0,9.9,11113222 
TCOON,ioos:station:TCOON:127:1,2019-11-14T21:18:00Z,28.2598,-96.7737,0.0,9.9,11113222 
TCOON,ioos:station:TCOON:127:1,2019-11-14T22:18:00Z,28.2598,-96.7737,0.0,9.9,11113222 
TCOON,ioos:station:TCOON:127:1,2019-11-14T23:18:00Z,28.2598,-96.7737,0.0,9.9,11113222 
TCOON,ioos:station:TCOON:127:1,2019-11-15T00:18:00Z,28.2598,-96.7737,0.0,9.9,11113222 
TCOON,ioos:station:TCOON:127:1,2019-11-15T01:18:00Z,28.2598,-96.7737,0.0,9.9,11113222 
TCOON,ioos:station:TCOON:127:1,2019-11-15T02:18:00Z,28.2598,-96.7737,0.0,9.9,11113222 
TCOON,ioos:station:TCOON:127:1,2019-11-15T03:18:00Z,28.2598,-96.7737,0.0,9.9,11113222 
TCOON,ioos:station:TCOON:127:1,2019-11-15T04:18:00Z,28.2598,-96.7737,0.0,9.8,11113222 
TCOON,ioos:station:TCOON:127:1,2019-11-15T05:18:00Z,28.2598,-96.7737,0.0,9.8,11113222 
TCOON,ioos:station:TCOON:127:1,2019-11-15T06:18:00Z,28.2598,-96.7737,0.0,9.8,11113222 
TCOON,ioos:station:TCOON:127:1,2019-11-15T07:18:00Z,28.2598,-96.7737,0.0,9.8,11113222 
TCOON,ioos:station:TCOON:127:1,2019-11-15T08:18:00Z,28.2598,-96.7737,0.0,9.8,11113222 
TCOON,ioos:station:TCOON:127:1,2019-11-15T09:18:00Z,28.2598,-96.7737,0.0,9.8,11113222 
TCOON,ioos:station:TCOON:127:1,2019-11-15T10:18:00Z,28.2598,-96.7737,0.0,9.7,11113222 
TCOON,ioos:station:TCOON:127:1,2019-11-15T11:18:00Z,28.2598,-96.7737,0.0,9.6,11113222 
TCOON,ioos:station:TCOON:127:1,2019-11-15T12:18:00Z,28.2598,-96.7737,0.0,9.8,11113222 
TCOON,ioos:station:TCOON:127:1,2019-11-15T13:18:00Z,28.2598,-96.7737,0.0,9.7,11113222 
TCOON,ioos:station:TCOON:127:1,2019-11-15T14:18:00Z,28.2598,-96.7737,0.0,9.6,11113222 
TCOON,ioos:station:TCOON:127:1,2019-11-15T15:18:00Z,28.2598,-96.7737,0.0,9.6,11113222 
TCOON,ioos:station:TCOON:127:1,2019-11-15T16:18:00Z,28.2598,-96.7737,0.0,9.8,11113222 
TCOON,ioos:station:TCOON:127:1,2019-11-15T17:18:00Z,28.2598,-96.7737,0.0,10.0,11111222 
TCOON,ioos:station:TCOON:127:1,2019-11-15T18:18:00Z,28.2598,-96.7737,0.0,10.2,11111222 
TCOON,ioos:station:TCOON:127:1,2019-11-15T19:18:00Z,28.2598,-96.7737,0.0,10.5,11111222 
TCOON,ioos:station:TCOON:127:1,2019-11-15T20:18:00Z,28.2598,-96.7737,0.0,10.9,11111222 
TCOON,ioos:station:TCOON:127:1,2019-11-15T21:36:00Z,28.2598,-96.7737,0.0,11.3,11111222 
TCOON,ioos:station:TCOON:127:1,2019-11-15T22:18:00Z,28.2598,-96.7737,0.0,11.3,11111222 
TCOON,ioos:station:TCOON:127:1,2019-11-15T23:18:00Z,28.2598,-96.7737,0.0,11.5,11111222 
TCOON,ioos:station:TCOON:127:1,2019-11-16T00:18:00Z,28.2598,-96.7737,0.0,11.5,11111222 
TCOON,ioos:station:TCOON:127:1,2019-11-16T01:18:00Z,28.2598,-96.7737,0.0,11.5,11111222 
TCOON,ioos:station:TCOON:127:1,2019-11-16T02:18:00Z,28.2598,-96.7737,0.0,11.4,11111222 
TCOON,ioos:station:TCOON:127:1,2019-11-16T03:18:00Z,28.2598,-96.7737,0.0,11.3,11111222 
TCOON,ioos:station:TCOON:127:1,2019-11-16T04:18:00Z,28.2598,-96.7737,0.0,11.5,11111222 
TCOON,ioos:station:TCOON:127:1,2019-11-16T05:18:00Z,28.2598,-96.7737,0.0,11.4,11111222 
TCOON,ioos:station:TCOON:127:1,2019-11-16T06:18:00Z,28.2598,-96.7737,0.0,11.3,11111222 
TCOON,ioos:station:TCOON:127:1,2019-11-16T07:18:00Z,28.2598,-96.7737,0.0,11.1,11111222 
TCOON,ioos:station:TCOON:127:1,2019-11-16T08:18:00Z,28.2598,-96.7737,0.0,10.9,11111222 
TCOON,ioos:station:TCOON:127:1,2019-11-16T09:18:00Z,28.2598,-96.7737,0.0,10.7,11111222 
TCOON,ioos:station:TCOON:127:1,2019-11-16T10:18:00Z,28.2598,-96.7737,0.0,10.6,11111222 
TCOON,ioos:station:TCOON:127:1,2019-11-16T11:18:00Z,28.2598,-96.7737,0.0,10.5,11111222 
TCOON,ioos:station:TCOON:127:1,2019-11-16T12:18:00Z,28.2598,-96.7737,0.0,10.4,11111222 
TCOON,ioos:station:TCOON:127:1,2019-11-16T13:18:00Z,28.2598,-96.7737,0.0,10.2,11111222 
TCOON,ioos:station:TCOON:127:1,2019-11-16T17:18:00Z,28.2598,-96.7737,0.0,10.7,11111222 
TCOON,ioos:station:TCOON:127:1,2019-11-16T18:18:00Z,28.2598,-96.7737,0.0,11.0,11111222 
TCOON,ioos:station:TCOON:127:1,2019-11-16T19:18:00Z,28.2598,-96.7737,0.0,11.3,11111222 
TCOON,ioos:station:TCOON:127:1,2019-11-16T20:18:00Z,28.2598,-96.7737,0.0,11.4,11111222 
TCOON,ioos:station:TCOON:127:1,2019-11-16T21:18:00Z,28.2598,-96.7737,0.0,11.9,11111222 
TCOON,ioos:station:TCOON:127:1,2019-11-16T22:18:00Z,28.2598,-96.7737,0.0,11.9,11111222 
TCOON,ioos:station:TCOON:127:1,2019-11-16T23:18:00Z,28.2598,-96.7737,0.0,11.8,11111222 
TCOON,ioos:station:TCOON:127:1,2019-11-17T17:18:00Z,28.2598,-96.7737,0.0,12.0,11111222 
TCOON,ioos:station:TCOON:127:1,2019-11-17T18:18:00Z,28.2598,-96.7737,0.0,12.1,11111222 
TCOON,ioos:station:TCOON:127:1,2019-11-17T19:18:00Z,28.2598,-96.7737,0.0,11.9,11111222 
TCOON,ioos:station:TCOON:127:1,2019-11-17T20:18:00Z,28.2598,-96.7737,0.0,11.9,11111222 
TCOON,ioos:station:TCOON:127:1,2019-11-17T21:18:00Z,28.2598,-96.7737,0.0,12.5,11111222 
TCOON,ioos:station:TCOON:127:1,2019-11-17T22:18:00Z,28.2598,-96.7737,0.0,12.6,11111222 
TCOON,ioos:station:TCOON:127:1,2019-11-17T23:18:00Z,28.2598,-96.7737,0.0,12.6,11111222 
TCOON,ioos:station:TCOON:127:1,2019-11-18T00:18:00Z,28.2598,-96.7737,0.0,12.7,11111222 
TCOON,ioos:station:TCOON:127:1,2019-11-18T01:18:00Z,28.2598,-96.7737,0.0,12.8,11111222 
TCOON,ioos:station:TCOON:127:1,2019-11-18T02:18:00Z,28.2598,-96.7737,0.0,12.8,11111222 
TCOON,ioos:station:TCOON:127:1,2019-11-18T11:18:00Z,28.2598,-96.7737,0.0,12.7,11111222 
TCOON,ioos:station:TCOON:127:1,2019-11-18T12:18:00Z,28.2598,-96.7737,0.0,12.8,11111222 
TCOON,ioos:station:TCOON:127:1,2019-11-18T13:18:00Z,28.2598,-96.7737,0.0,12.9,11111222 
TCOON,ioos:station:TCOON:127:1,2019-11-18T14:18:00Z,28.2598,-96.7737,0.0,12.9,11111222 
TCOON,ioos:station:TCOON:127:1,2019-11-18T15:18:00Z,28.2598,-96.7737,0.0,12.9,11111222 
TCOON,ioos:station:TCOON:127:1,2019-11-18T16:18:00Z,28.2598,-96.7737,0.0,12.8,11111222 
TCOON,ioos:station:TCOON:127:1,2019-11-18T17:18:00Z,28.2598,-96.7737,0.0,13.1,11111222 
TCOON,ioos:station:TCOON:127:1,2019-11-18T18:18:00Z,28.2598,-96.7737,0.0,13.7,11111222 
TCOON,ioos:station:TCOON:127:1,2019-11-18T19:18:00Z,28.2598,-96.7737,0.0,14.0,11111222 
TCOON,ioos:station:TCOON:127:1,2019-11-18T20:18:00Z,28.2598,-96.7737,0.0,14.2,11111222 
TCOON,ioos:station:TCOON:127:1,2019-11-19T14:18:00Z,28.2598,-96.7737,0.0,13.5,11111222 
TCOON,ioos:station:TCOON:127:1,2019-11-19T15:18:00Z,28.2598,-96.7737,0.0,13.3,11111222 
TCOON,ioos:station:TCOON:127:1,2019-11-19T16:18:00Z,28.2598,-96.7737,0.0,14.2,11111222 
TCOON,ioos:station:TCOON:127:1,2019-11-19T17:18:00Z,28.2598,-96.7737,0.0,14.4,11111222 
TCOON,ioos:station:TCOON:127:1,2019-11-19T18:18:00Z,28.2598,-96.7737,0.0,14.5,11111222 
TCOON,ioos:station:TCOON:127:1,2019-11-19T19:18:00Z,28.2598,-96.7737,0.0,14.8,11111222 
TCOON,ioos:station:TCOON:127:1,2019-11-19T20:18:00Z,28.2598,-96.7737,0.0,15.2,11111222 
TCOON,ioos:station:TCOON:127:1,2019-11-19T21:18:00Z,28.2598,-96.7737,0.0,15.2,11111222 
TCOON,ioos:station:TCOON:127:1,2019-11-19T22:18:00Z,28.2598,-96.7737,0.0,15.3,11111222 
TCOON,ioos:station:TCOON:127:1,2019-11-19T23:18:00Z,28.2598,-96.7737,0.0,15.6,11111222 
TCOON,ioos:station:TCOON:127:1,2019-11-20T00:18:00Z,28.2598,-96.7737,0.0,16.1,11111222 
TCOON,ioos:station:TCOON:127:1,2019-11-20T01:18:00Z,28.2598,-96.7737,0.0,16.7,11111222 
TCOON,ioos:station:TCOON:127:1,2019-11-20T02:18:00Z,28.2598,-96.7737,0.0,16.7,11111222 
TCOON,ioos:station:TCOON:127:1,2019-11-20T03:18:00Z,28.2598,-96.7737,0.0,16.9,11111222 
TCOON,ioos:station:TCOON:127:1,2019-11-20T04:18:00Z,28.2598,-96.7737,0.0,16.6,11111222 
TCOON,ioos:station:TCOON:127:1,2019-11-20T05:18:00Z,28.2598,-96.7737,0.0,16.2,11111222 
TCOON,ioos:station:TCOON:127:1,2019-11-20T06:18:00Z,28.2598,-96.7737,0.0,16.2,11111222 
TCOON,ioos:station:TCOON:127:1,2019-11-20T07:18:00Z,28.2598,-96.7737,0.0,16.3,11111222 
TCOON,ioos:station:TCOON:127:1,2019-11-20T08:18:00Z,28.2598,-96.7737,0.0,16.2,11111222 